Overview Statistics Trail Chart Weather Telemetry Raw packets
 

This is the latest recevied weather packets stored in our database for station/object N6GPM. If no packets are shown the sender has not sent any weather packets the latest 10 day(s).

<< 88 89 90 91 92 93 94 >>
Time Temp. Humidity Pressure Rain* Wind** Luminosity Snow
1788029746 36.11° C 26% 1017.4 hPa 0 mm - 1009 W/m² -
1788029441 35° C 26% 1017.4 hPa 0 mm - 987 W/m² -
1788029139 35° C 27% 1017.7 hPa 0 mm - 999 W/m² -
1788028833 35° C 26% 1017.8 hPa 0 mm - 332 W/m² -
1788028529 35° C 26% 1017.8 hPa 0 mm - 506 W/m² -
1788028224 35° C 27% 1017.8 hPa 0 mm - 1099 W/m² -
1788027928 35° C 28% 1017.7 hPa 0 mm - 795 W/m² -
1788027620 35° C 28% 1018 hPa 0 mm - 967 W/m² -
1788027314 35° C 28% 1017.9 hPa 0 mm - 888 W/m² -
1788027014 34.44° C 28% 1017.9 hPa 0 mm - 794 W/m² -
1788026714 35° C 28% 1017.9 hPa 0 mm - 930 W/m² -
1788026410 35° C 28% 1018.1 hPa 0 mm - 878 W/m² -
1788026115 34.44° C 29% 1017.9 hPa 0 mm - 856 W/m² -
1788025804 34.44° C 29% 1018.4 hPa 0 mm - 864 W/m² -
1788025503 35.56° C 28% 1018.1 hPa 0 mm - 845 W/m² -
1788025198 33.89° C 30% 1018.2 hPa 0 mm - 804 W/m² -
1788024893 32.78° C 31% 1018.1 hPa 0 mm - 820 W/m² -
1788024589 33.33° C 32% 1018.4 hPa 0 mm - 810 W/m² -
1788024283 32.78° C 33% 1018.1 hPa 0 mm - 793 W/m² -
1788023978 32.22° C 35% 1018 hPa 0 mm - 779 W/m² -
1788023673 31.67° C 36% 1018.2 hPa 0 mm - 764 W/m² -
1788023364 32.22° C 35% 1018.3 hPa 0 mm - 751 W/m² -
1788023064 31.67° C 37% 1018.1 hPa 0 mm - 733 W/m² -
1788022761 31.67° C 36% 1018.2 hPa 0 mm - 717 W/m² -
1788022460 31.67° C 36% 1018.2 hPa 0 mm - 702 W/m² -

* Rain latest hour (hover to see other rain measurements)
** Current wind speed in m/s (hover to see current wind gust speed)